Location: Roah Hook
(42.4840°N, 73.7893°W)
Time: 20:04:14
(UTC+00:00)

BlueWalker 3 - Visible Passes

Search period start: 04 October 2024 00:00
Search period end: 14 October 2024 00:00
Orbit: 473 x 486 km, 53.2° (Epoch: 04 October)

Date Brightness Start Highest point End Pass type
(mag) Time Alt. Az. Time Alt. Az. Time Alt. Az.
04 Oct 4.6 08:35:27 12° SE 08:36:08 13° SE 08:37:50 10° E visible
04 Oct 1.8 10:09:57 10° SW 10:13:38 84° NW 10:17:21 10° NE visible
05 Oct 5.0 08:09:02 10° ESE 08:09:02 10° ESE 08:09:13 10° ESE visible
05 Oct 1.8 09:43:16 22° SW 09:45:31 87° SSE 09:49:13 10° NE visible
06 Oct 1.8 09:16:40 55° SSW 09:17:22 77° SE 09:21:04 10° NE visible
07 Oct 2.6 08:49:56 50° E 08:49:56 50° E 08:52:51 10° ENE visible
07 Oct 3.2 10:24:18 10° W 10:27:26 25° NNW 10:30:35 10° NE visible
08 Oct 4.2 08:23:05 23° ENE 08:23:05 23° ENE 08:24:36 10° ENE visible
08 Oct 3.1 09:57:17 18° WNW 09:59:09 27° NNW 10:02:22 10° NE visible
09 Oct 5.2 07:56:06 11° ENE 07:56:06 11° ENE 07:56:18 10° ENE visible
09 Oct 3.0 09:30:18 28° NW 09:30:49 29° NNW 09:34:06 10° NE visible
10 Oct 3.3 09:03:14 28° N 09:03:14 28° N 09:05:48 10° NE visible
11 Oct 4.2 08:36:05 19° NNE 08:36:05 19° NNE 08:37:29 10° NE visible
11 Oct 4.0 10:10:32 10° NW 10:12:54 16° N 10:15:16 10° NE visible
12 Oct 5.1 08:08:53 11° NE 08:08:53 11° NE 08:09:06 10° NE visible
12 Oct 3.9 09:43:04 14° NNW 09:44:25 16° N 09:46:50 10° NNE visible
13 Oct 4.0 09:15:47 17° NNW 09:15:55 17° N 09:18:23 10° NNE visible
